STARLINK-1760 (46341 NORAD) Tracking and Keplerian Element Data

This shows tracking and keplerian element data for the satellite.

Feedback or suggestion? Click here.




ElementValue
Catalog46341
NameSTARLINK-1760
Epoch Orbit402
Epoch Day267.83334491
Epoch Year2020
RAAN329.8227
Inclination52.9999
Eccentricity0.0001553
Argument of Perigee60.2457
Mean Anonmoly165.7696
Mean Motion15.62795449
Decay Rate-0.00108641
L11 46341U 20062S 20267.83334491 -.00108641 00000-0 -11945-2 0 9994
L22 46341 52.9999 329.8227 0001553 60.2457 165.7696 15.62795449 4022

Live tracking and technical data element details for STARLINK-1760 (NORAD 46341). STARLINK-1760 can be tracked NOW for your location showing map with azimuth and elevation plus other details from your city location.

Track the satellite on the map from your city or location and see movement details for azimuth, elevation, latitude, longitude, range, height, and movement on the map or in text.







IsCatalogInMostPopularTable: catalog: 46341, numindb: 1
Update: records affected: 1



GetName: 46341 STARLINK-1760

Hit Count: updated at: Thu, 24 Sep 2020 18:58:58 GMT